Retour au catalogue

DELTA 1 DEB

ActifSSO
NORAD 21285·DEBRIS·🇺🇸 United States

Lancé Jun 12, 1975 depuis Vandenberg Space Force Base

Loading…

Prochains Passages (prochaines 24 heures)

TLE

FraisSource: Space-Track

Époque: Sep 14, 2026, 20:35 UTC

1 21285U 75052W   26257.85798347 -.00000016  00000-0  45712-4 0  9991
2 21285  99.6264 103.6560 0020266 107.3997 269.8967 13.41286737730569

Suivez DELTA 1 DEB en temps réel avec AllMySat

Download on the App Store